Location: Makanda
(37.6176°N, 89.2090°W)
Time: 16:21:00
(UTC+00:00)

BREEZE-M DEB (TANK) - Pass Details

Date: 23 September 2019
Orbit: 307 x 15401 km, 49.3° (Epoch: 19 October)

Event Time Altitude Azimuth Distance (km) Brightness Sun altitude
Rises 00:33:28 0° 303° (WNW) 2,258 7.3 -8.6°
Reaches altitude 10° 00:35:26 10° 298° (WNW) 1,215 5.9 -9.0°
Maximum altitude 00:37:35 56° 218° (SW) 380 2.2 -9.4°
Drops below altitude 10° 00:40:14 10° 137° (SE) 1,509 4.6 -10.0°
Enters shadow 00:40:30 - 136° (SE) 1,647 4.8 -10.0°
